QPF
0.08 0.10 0.12 0.14 0.15 0.20 0.19 0.14 0.14 0.17 0.16 0.14 0.15 0.14 0.15 0.17 0.14 0.12 0.15 0.19 0.21 0.18 0.16 0.12 0.09 0.07 0.06 0.05 0.04 0.03 0.02 0.02 0.02 0.01 0.01 0.01 0.01 0.01 0.01 0.01 0.01 0.01 0.02
0.13 0.13 0.14 0.15 0.17 0.18 0.19 0.19 0.21 0.21 0.19 0.19 0.22 0.25 0.22 0.22 0.22 0.19 0.21 0.24 0.24 0.22 0.17 0.15 0.14 0.10 0.06 0.04 0.04 0.03 0.04 0.04 0.03 0.02 0.01 0.01 0.01 0.01 0.01 0.02 0.02 0.02 0.02
0.15 0.16 0.15 0.15 0.17 0.18 0.25 0.27 0.25 0.24 0.22 0.20 0.21 0.25 0.27 0.26 0.27 0.26 0.29 0.36 0.32 0.31 0.28 0.21 0.16 0.11 0.09 0.07 0.05 0.05 0.04 0.04 0.03 0.03 0.04 0.03 0.03 0.02 0.02 0.02 0.02 0.02 0.02
0.12 0.14 0.13 0.12 0.12 0.13 0.18 0.22 0.24 0.25 0.26 0.25 0.24 0.25 0.25 0.28 0.35 0.38 0.35 0.37 0.38 0.38 0.38 0.31 0.19 0.13 0.11 0.09 0.07 0.07 0.07 0.07 0.05 0.05 0.04 0.04 0.03 0.02 0.02 0.02 0.02 0.01 0.01
0.10 0.13 0.12 0.11 0.10 0.10 0.13 0.16 0.19 0.20 0.28 0.30 0.25 0.22 0.20 0.21 0.27 0.32 0.33 0.32 0.29 0.31 0.31 0.30 0.24 0.17 0.14 0.14 0.12 0.13 0.14 0.13 0.09 0.06 0.04 0.04 0.03 0.02 0.02 0.02 0.02 0.01 0.01
0.05 0.06 0.07 0.08 0.09 0.10 0.11 0.10 0.13 0.15 0.18 0.22 0.20 0.17 0.15 0.14 0.16 0.23 0.29 0.28 0.21 0.18 0.18 0.19 0.19 0.17 0.19 0.17 0.15 0.17 0.16 0.13 0.10 0.08 0.05 0.04 0.02 0.02 0.02 0.02 0.02 0.01 0.01
0.04 0.03 0.04 0.04 0.05 0.06 0.07 0.08 0.08 0.10 0.11 0.13 0.14 0.13 0.12 0.11 0.12 0.13 0.19 0.23 0.21 0.18 0.16 0.15 0.17 0.15 0.20 0.21 0.15 0.16 0.15 0.12 0.10 0.09 0.07 0.04 0.04 0.03 0.02 0.02 0.02 0.02 0.01
0.03 0.03 0.02 0.03 0.05 0.05 0.06 0.07 0.08 0.09 0.10 0.13 0.15 0.17 0.16 0.16 0.14 0.12 0.12 0.15 0.18 0.21 0.18 0.16 0.15 0.14 0.14 0.18 0.18 0.19 0.17 0.13 0.10 0.09 0.07 0.06 0.06 0.05 0.04 0.03 0.02 0.02 0.01
0.03 0.02 0.02 0.03 0.05 0.08 0.08 0.08 0.09 0.11 0.11 0.13 0.16 0.19 0.17 0.15 0.15 0.15 0.13 0.13 0.15 0.18 0.20 0.18 0.17 0.16 0.16 0.16 0.16 0.16 0.15 0.12 0.10 0.08 0.07 0.07 0.07 0.06 0.06 0.05 0.04 0.03 0.02
0.04 0.03 0.02 0.02 0.02 0.03 0.04 0.06 0.08 0.10 0.11 0.12 0.16 0.17 0.15 0.12 0.14 0.15 0.16 0.15 0.18 0.21 0.23 0.21 0.17 0.15 0.14 0.15 0.17 0.17 0.14 0.12 0.12 0.12 0.10 0.09 0.07 0.07 0.07 0.07 0.06 0.05 0.04
0.03 0.02 0.02 0.01 0.02 0.03 0.03 0.03 0.04 0.07 0.11 0.13 0.12 0.13 0.13 0.12 0.12 0.12 0.14 0.16 0.18 0.21 0.22 0.21 0.18 0.16 0.16 0.17 0.19 0.20 0.18 0.14 0.12 0.14 0.13 0.11 0.09 0.09 0.09 0.09 0.08 0.07 0.05
0.02 0.01 0.01 0.01 0.01 0.02 0.03 0.03 0.02 0.03 0.07 0.11 0.13 0.15 0.16 0.16 0.17 0.18 0.17 0.17 0.18 0.19 0.19 0.19 0.17 0.17 0.19 0.21 0.22 0.21 0.16 0.14 0.12 0.11 0.09 0.07 0.06 0.06 0.06 0.07 0.07 0.06 0.05
0.02 0.02 0.02 0.02 0.03 0.03 0.02 0.02 0.02 0.02 0.04 0.07 0.09 0.12 0.16 0.18 0.19 0.20 0.22 0.22 0.21 0.21 0.20 0.20 0.19 0.19 0.21 0.21 0.21 0.19 0.15 0.14 0.13 0.10 0.07 0.05 0.04 0.04 0.04 0.04 0.04 0.04 0.03
0.01 0.02 0.02 0.01 0.02 0.03 0.03 0.02 0.02 0.02 0.03 0.04 0.06 0.09 0.11 0.14 0.15 0.16 0.18 0.20 0.24 0.27 0.24 0.22 0.21 0.20 0.19 0.16 0.16 0.15 0.13 0.13 0.09 0.07 0.06 0.05 0.05 0.04 0.04 0.04 0.03 0.02 0.02
0.00 0.00 0.01 0.01 0.01 0.01 0.03 0.03 0.03 0.03 0.03 0.05 0.06 0.08 0.09 0.10 0.11 0.12 0.15 0.16 0.18 0.22 0.23 0.22 0.21 0.19 0.15 0.12 0.12 0.09 0.07 0.09 0.08 0.07 0.05 0.04 0.04 0.03 0.03 0.02 0.02 0.01 0.01
0.00 0.00 0.00 0.00 0.00 0.01 0.01 0.02 0.03 0.03 0.03 0.04 0.05 0.05 0.07 0.08 0.09 0.10 0.13 0.15 0.16 0.17 0.18 0.17 0.14 0.12 0.09 0.07 0.08 0.05 0.05 0.06 0.06 0.05 0.05 0.04 0.04 0.03 0.02 0.01 0.01 0.01 0.00
0.00 0.00 0.00 0.00 0.00 0.01 0.01 0.01 0.02 0.03 0.04 0.04 0.05 0.04 0.04 0.05 0.06 0.06 0.07 0.10 0.12 0.12 0.12 0.12 0.11 0.09 0.07 0.06 0.06 0.06 0.05 0.05 0.05 0.05 0.04 0.04 0.03 0.03 0.02 0.01 0.01 0.00 0.00
0.00 0.00 0.00 0.00 0.00 0.00 0.00 0.01 0.02 0.02 0.03 0.03 0.04 0.04 0.04 0.05 0.06 0.07 0.07 0.08 0.09 0.09 0.08 0.10 0.11 0.09 0.07 0.06 0.06 0.05 0.04 0.03 0.03 0.03 0.03 0.03 0.03 0.02 0.01 0.01 0.00 0.00 0.00
0.01 0.01 0.01 0.01 0.01 0.01 0.01 0.02 0.03 0.03 0.04 0.05 0.05 0.05 0.06 0.06 0.06 0.05 0.05 0.05 0.06 0.07 0.07 0.07 0.08 0.07 0.07 0.07 0.06 0.05 0.04 0.03 0.02 0.02 0.02 0.02 0.01 0.01 0.01 0.00 0.00 0.00 0.00
0.01 0.01 0.01 0.01 0.01 0.01 0.01 0.02 0.03 0.04 0.05 0.05 0.04 0.04 0.05 0.05 0.05 0.04 0.04 0.04 0.04 0.05 0.07 0.06 0.05 0.05 0.05 0.05 0.05 0.04 0.04 0.03 0.03 0.02 0.02 0.01 0.01 0.00 0.00 0.00 0.00 0.00 0.00
0.00 0.00 0.01 0.01 0.01 0.01 0.01 0.01 0.02 0.03 0.04 0.03 0.03 0.03 0.03 0.03 0.03 0.02 0.02 0.02 0.02 0.02 0.04 0.03 0.03 0.03 0.03 0.04 0.04 0.03 0.03 0.03 0.02 0.02 0.01 0.01 0.00 0.00 0.00 0.00 0.00 0.00 0.00
0.00 0.00 0.00 0.00 0.01 0.01 0.01 0.02 0.02 0.03 0.03 0.02 0.02 0.02 0.01 0.01 0.01 0.00 0.01 0.01 0.01 0.01 0.01 0.02 0.02 0.02 0.03 0.03 0.02 0.02 0.02 0.01 0.01 0.01 0.00 0.00 0.00 0.00 0.00 0.00 0.00 0.00 0.00
0.00 0.01 0.00 0.00 0.00 0.01 0.01 0.01 0.02 0.02 0.02 0.01 0.01 0.01 0.00 0.00 0.00 0.00 0.00 0.00 0.00 0.01 0.01 0.01 0.01 0.01 0.01 0.01 0.01 0.01 0.01 0.01 0.00 0.00 0.00 0.00 0.00 0.00 0.00 0.00 0.00 0.00 0.00
0.00 0.01 0.01 0.00 0.00 0.01 0.01 0.01 0.01 0.02 0.01 0.00 0.00 0.00 0.00 0.00 0.01 0.00 0.00 0.00 0.00 0.00 0.00 0.00 0.00 0.00 0.00 0.00 0.00 0.00 0.00 0.00 0.01 0.01 0.00 0.00 0.00 0.00 0.00 0.00 0.00 0.00 0.00
0.01 0.01 0.01 0.01 0.00 0.00 0.00 0.00 0.00 0.01 0.00 0.00 0.00 0.00 0.00 0.00 0.00 0.00 0.00 0.00 0.00 0.00 0.00 0.00 0.00 0.00 0.00 0.00 0.00 0.00 0.00 0.00 0.00 0.00 0.00 0.01 0.00 0.00 0.00 0.01 0.00 0.00 0.00
0.01 0.01 0.01 0.01 0.01 0.00 0.00 0.01 0.00 0.00 0.00 0.00 0.00 0.00 0.00 0.00 0.00 0.00 0.00 0.00 0.00 0.00 0.00 0.00 0.00 0.00 0.00 0.00 0.00 0.00 0.00 0.00 0.00 0.00 0.00 0.00 0.01 0.00 0.00 0.00 0.01 0.01 0.00
MSLP
1015.99 1016.14 1016.25 1016.36 1016.51 1016.72 1017.00 1017.32 1017.67 1018.00 1018.28 1018.49 1018.65 1018.77 1018.88 1019.01 1019.18 1019.37 1019.58 1019.78 1019.95 1020.07 1020.15 1020.18 1020.21 1020.24 1020.30 1020.39 1020.50 1020.62 1020.72 1020.79 1020.82 1020.82 1020.80 1020.80 1020.83 1020.90 1021.01 1021.16 1021.33 1021.49 1021.62
1015.76 1015.94 1016.09 1016.24 1016.43 1016.66 1016.95 1017.28 1017.62 1017.94 1018.22 1018.44 1018.62 1018.77 1018.91 1019.08 1019.27 1019.48 1019.71 1019.92 1020.11 1020.24 1020.34 1020.40 1020.45 1020.52 1020.60 1020.71 1020.84 1020.97 1021.09 1021.17 1021.21 1021.23 1021.24 1021.26 1021.32 1021.41 1021.55 1021.72 1021.90 1022.07 1022.21
1015.52 1015.75 1015.96 1016.16 1016.40 1016.68 1016.99 1017.33 1017.66 1017.97 1018.24 1018.46 1018.64 1018.81 1018.97 1019.16 1019.37 1019.60 1019.84 1020.06 1020.26 1020.41 1020.53 1020.62 1020.70 1020.80 1020.92 1021.06 1021.21 1021.36 1021.49 1021.59 1021.65 1021.70 1021.73 1021.79 1021.87 1021.99 1022.14 1022.33 1022.51 1022.69 1022.84
1015.28 1015.57 1015.84 1016.11 1016.40 1016.72 1017.06 1017.40 1017.73 1018.03 1018.28 1018.49 1018.67 1018.84 1019.02 1019.22 1019.45 1019.69 1019.94 1020.17 1020.37 1020.54 1020.68 1020.80 1020.91 1021.04 1021.19 1021.36 1021.54 1021.72 1021.87 1021.99 1022.09 1022.16 1022.23 1022.31 1022.41 1022.55 1022.72 1022.91 1023.10 1023.27 1023.42
1015.08 1015.41 1015.73 1016.06 1016.40 1016.76 1017.12 1017.46 1017.78 1018.05 1018.27 1018.47 1018.64 1018.81 1019.00 1019.21 1019.45 1019.71 1019.97 1020.22 1020.44 1020.62 1020.78 1020.93 1021.07 1021.23 1021.41 1021.61 1021.82 1022.02 1022.20 1022.35 1022.48 1022.58 1022.68 1022.79 1022.91 1023.06 1023.24 1023.42 1023.60 1023.77 1023.91
1014.93 1015.28 1015.64 1016.01 1016.38 1016.76 1017.12 1017.46 1017.75 1017.99 1018.18 1018.35 1018.51 1018.68 1018.88 1019.11 1019.38 1019.66 1019.94 1020.21 1020.44 1020.65 1020.84 1021.01 1021.18 1021.37 1021.58 1021.80 1022.03 1022.25 1022.46 1022.64 1022.79 1022.93 1023.06 1023.19 1023.33 1023.49 1023.67 1023.84 1024.01 1024.16 1024.29
1014.87 1015.22 1015.58 1015.96 1016.34 1016.71 1017.06 1017.37 1017.62 1017.82 1017.99 1018.13 1018.28 1018.45 1018.66 1018.92 1019.21 1019.52 1019.84 1020.14 1020.41 1020.65 1020.86 1021.06 1021.26 1021.48 1021.70 1021.95 1022.19 1022.43 1022.66 1022.86 1023.04 1023.21 1023.36 1023.52 1023.68 1023.85 1024.01 1024.18 1024.33 1024.46 1024.57
1014.93 1015.24 1015.58 1015.93 1016.29 1016.64 1016.95 1017.21 1017.42 1017.58 1017.70 1017.82 1017.96 1018.13 1018.36 1018.64 1018.97 1019.33 1019.68 1020.03 1020.34 1020.62 1020.87 1021.11 1021.34 1021.58 1021.83 1022.08 1022.34 1022.59 1022.83 1023.05 1023.26 1023.44 1023.62 1023.80 1023.97 1024.14 1024.30 1024.46 1024.59 1024.70 1024.79
1015.12 1015.38 1015.67 1015.97 1016.28 1016.57 1016.83 1017.03 1017.17 1017.27 1017.35 1017.44 1017.56 1017.74 1017.98 1018.30 1018.66 1019.06 1019.47 1019.87 1020.24 1020.57 1020.88 1021.16 1021.43 1021.70 1021.97 1022.24 1022.51 1022.77 1023.02 1023.25 1023.46 1023.67 1023.86 1024.05 1024.23 1024.41 1024.57 1024.71 1024.83 1024.92 1024.98
1015.46 1015.65 1015.86 1016.09 1016.33 1016.54 1016.71 1016.83 1016.90 1016.93 1016.96 1017.01 1017.10 1017.27 1017.53 1017.86 1018.27 1018.71 1019.18 1019.64 1020.08 1020.49 1020.86 1021.21 1021.54 1021.85 1022.15 1022.44 1022.72 1022.99 1023.24 1023.47 1023.69 1023.90 1024.11 1024.31 1024.50 1024.68 1024.84 1024.97 1025.07 1025.15 1025.20
1015.92 1016.02 1016.15 1016.29 1016.43 1016.54 1016.60 1016.62 1016.60 1016.55 1016.50 1016.50 1016.56 1016.71 1016.96 1017.31 1017.74 1018.24 1018.76 1019.30 1019.82 1020.32 1020.79 1021.22 1021.63 1022.01 1022.36 1022.68 1022.98 1023.25 1023.50 1023.73 1023.95 1024.17 1024.38 1024.58 1024.78 1024.96 1025.12 1025.25 1025.34 1025.40 1025.44
1016.44 1016.47 1016.50 1016.53 1016.55 1016.54 1016.48 1016.38 1016.24 1016.09 1015.96 1015.88 1015.89 1016.01 1016.24 1016.59 1017.05 1017.59 1018.18 1018.80 1019.42 1020.03 1020.62 1021.16 1021.67 1022.14 1022.56 1022.94 1023.26 1023.55 1023.80 1024.03 1024.24 1024.44 1024.65 1024.85 1025.05 1025.24 1025.40 1025.53 1025.62 1025.67 1025.70
1016.98 1016.91 1016.84 1016.75 1016.64 1016.49 1016.29 1016.05 1015.79 1015.52 1015.29 1015.12 1015.07 1015.13 1015.34 1015.69 1016.16 1016.75 1017.41 1018.12 1018.86 1019.60 1020.32 1021.01 1021.65 1022.22 1022.74 1023.18 1023.55 1023.85 1024.11 1024.33 1024.52 1024.71 1024.91 1025.10 1025.30 1025.48 1025.65 1025.78 1025.87 1025.93 1025.94
1017.46 1017.30 1017.11 1016.90 1016.64 1016.34 1015.99 1015.60 1015.20 1014.81 1014.47 1014.21 1014.08 1014.09 1014.27 1014.61 1015.11 1015.74 1016.48 1017.30 1018.16 1019.05 1019.92 1020.76 1021.54 1022.24 1022.86 1023.38 1023.80 1024.13 1024.39 1024.60 1024.78 1024.95 1025.12 1025.30 1025.48 1025.66 1025.83 1025.97 1026.06 1026.12 1026.14
1017.84 1017.58 1017.27 1016.92 1016.52 1016.07 1015.57 1015.04 1014.50 1013.99 1013.54 1013.20 1013.00 1012.96 1013.11 1013.45 1013.97 1014.66 1015.48 1016.40 1017.39 1018.43 1019.45 1020.45 1021.38 1022.21 1022.93 1023.53 1024.00 1024.36 1024.63 1024.82 1024.98 1025.12 1025.26 1025.41 1025.58 1025.75 1025.91 1026.05 1026.15 1026.21 1026.24
1018.08 1017.72 1017.31 1016.83 1016.30 1015.71 1015.07 1014.41 1013.75 1013.14 1012.60 1012.19 1011.94 1011.87 1012.01 1012.35 1012.90 1013.64 1014.54 1015.57 1016.68 1017.84 1019.01 1020.15 1021.20 1022.15 1022.96 1023.63 1024.15 1024.53 1024.80 1024.98 1025.11 1025.21 1025.31 1025.43 1025.57 1025.72 1025.87 1026.00 1026.11 1026.18 1026.22
1018.20 1017.76 1017.25 1016.67 1016.03 1015.33 1014.59 1013.83 1013.09 1012.40 1011.81 1011.36 1011.08 1011.00 1011.15 1011.51 1012.09 1012.89 1013.85 1014.95 1016.16 1017.42 1018.69 1019.92 1021.07 1022.10 1022.98 1023.70 1024.25 1024.64 1024.90 1025.06 1025.16 1025.23 1025.29 1025.37 1025.47 1025.58 1025.71 1025.83 1025.93 1026.01 1026.05
1018.25 1017.74 1017.17 1016.52 1015.80 1015.04 1014.24 1013.43 1012.65 1011.94 1011.33 1010.88 1010.60 1010.54 1010.70 1011.09 1011.71 1012.53 1013.54 1014.69 1015.94 1017.25 1018.57 1019.85 1021.04 1022.10 1023.01 1023.74 1024.30 1024.69 1024.94 1025.08 1025.15 1025.18 1025.20 1025.24 1025.29 1025.37 1025.46 1025.56 1025.64 1025.71 1025.76
1018.28 1017.75 1017.14 1016.46 1015.73 1014.95 1014.14 1013.34 1012.57 1011.87 1011.29 1010.87 1010.63 1010.60 1010.79 1011.20 1011.83 1012.67 1013.68 1014.82 1016.07 1017.37 1018.67 1019.93 1021.11 1022.15 1023.04 1023.76 1024.30 1024.68 1024.92 1025.04 1025.09 1025.09 1025.08 1025.08 1025.09 1025.12 1025.17 1025.22 1025.28 1025.32 1025.36
1018.37 1017.83 1017.24 1016.58 1015.88 1015.13 1014.37 1013.62 1012.91 1012.28 1011.76 1011.39 1011.21 1011.21 1011.43 1011.85 1012.48 1013.29 1014.26 1015.35 1016.53 1017.75 1018.98 1020.16 1021.26 1022.24 1023.07 1023.75 1024.26 1024.61 1024.84 1024.95 1024.99 1024.98 1024.95 1024.91 1024.89 1024.87 1024.87 1024.88 1024.89 1024.90 1024.91
1018.55 1018.05 1017.51 1016.92 1016.28 1015.62 1014.95 1014.28 1013.67 1013.13 1012.69 1012.40 1012.27 1012.32 1012.55 1012.97 1013.56 1014.31 1015.19 1016.18 1017.24 1018.34 1019.43 1020.48 1021.46 1022.34 1023.09 1023.70 1024.17 1024.50 1024.72 1024.83 1024.87 1024.87 1024.83 1024.78 1024.73 1024.67 1024.62 1024.57 1024.53 1024.49 1024.46
1018.85 1018.42 1017.96 1017.46 1016.92 1016.37 1015.81 1015.26 1014.76 1014.32 1013.98 1013.77 1013.69 1013.77 1014.00 1014.38 1014.91 1015.57 1016.33 1017.18 1018.08 1019.01 1019.94 1020.83 1021.67 1022.42 1023.07 1023.61 1024.03 1024.35 1024.56 1024.69 1024.76 1024.77 1024.75 1024.70 1024.63 1024.54 1024.45 1024.35 1024.24 1024.15 1024.06
1019.27 1018.93 1018.56 1018.16 1017.74 1017.30 1016.86 1016.44 1016.04 1015.71 1015.46 1015.31 1015.28 1015.36 1015.58 1015.91 1016.35 1016.89 1017.52 1018.20 1018.93 1019.68 1020.43 1021.16 1021.84 1022.47 1023.02 1023.49 1023.87 1024.18 1024.40 1024.56 1024.66 1024.70 1024.71 1024.67 1024.61 1024.51 1024.38 1024.23 1024.07 1023.90 1023.75
1019.80 1019.54 1019.26 1018.96 1018.64 1018.31 1017.98 1017.66 1017.37 1017.13 1016.95 1016.85 1016.84 1016.93 1017.11 1017.37 1017.72 1018.14 1018.62 1019.15 1019.71 1020.28 1020.87 1021.44 1021.99 1022.50 1022.97 1023.38 1023.73 1024.03 1024.27 1024.45 1024.59 1024.67 1024.71 1024.71 1024.65 1024.55 1024.40 1024.22 1024.00 1023.78 1023.56
1020.40 1020.21 1020.00 1019.78 1019.54 1019.30 1019.06 1018.82 1018.62 1018.44 1018.32 1018.26 1018.26 1018.33 1018.47 1018.66 1018.92 1019.23 1019.58 1019.97 1020.38 1020.82 1021.26 1021.71 1022.15 1022.57 1022.97 1023.33 1023.66 1023.95 1024.20 1024.40 1024.57 1024.68 1024.76 1024.77 1024.74 1024.64 1024.48 1024.28 1024.03 1023.76 1023.48
1021.03 1020.89 1020.73 1020.57 1020.39 1020.21 1020.03 1019.85 1019.70 1019.58 1019.49 1019.45 1019.46 1019.51 1019.61 1019.76 1019.94 1020.16 1020.41 1020.69 1020.99 1021.32 1021.66 1022.02 1022.37 1022.73 1023.07 1023.39 1023.69 1023.96 1024.21 1024.42 1024.59 1024.73 1024.81 1024.85 1024.83 1024.74 1024.59 1024.37 1024.10 1023.79 1023.47
Thickness
5734 5733 5732 5731 5730 5729 5728 5727 5726 5725 5724 5723 5722 5722 5722 5722 5722 5722 5722 5722 5721 5720 5720 5718 5717 5717 5716 5715 5714 5713 5711 5710 5708 5707 5706 5705 5703 5702 5701 5700 5699 5697 5696
5730 5730 5729 5728 5726 5725 5724 5723 5722 5721 5720 5719 5719 5718 5718 5718 5718 5719 5718 5717 5717 5717 5717 5715 5713 5712 5712 5711 5711 5710 5709 5707 5706 5704 5703 5701 5700 5699 5698 5696 5695 5694 5692
5725 5726 5725 5723 5722 5722 5721 5719 5718 5716 5715 5715 5714 5714 5714 5714 5714 5714 5714 5713 5712 5712 5712 5711 5710 5709 5708 5708 5707 5706 5705 5704 5702 5701 5699 5698 5696 5695 5693 5692 5690 5689 5687
5720 5720 5719 5718 5717 5716 5716 5714 5713 5712 5710 5709 5708 5708 5709 5709 5709 5709 5709 5708 5708 5707 5707 5706 5706 5705 5704 5704 5703 5702 5701 5700 5698 5697 5695 5694 5692 5690 5689 5687 5685 5683 5681
5714 5713 5712 5712 5712 5711 5710 5709 5708 5707 5705 5703 5702 5702 5703 5704 5704 5704 5704 5703 5703 5703 5702 5701 5702 5702 5701 5700 5699 5699 5697 5696 5694 5693 5691 5689 5687 5685 5683 5681 5679 5677 5675
5707 5706 5706 5705 5705 5704 5702 5702 5701 5701 5699 5698 5697 5696 5696 5697 5697 5698 5698 5698 5698 5698 5698 5698 5697 5697 5696 5696 5695 5694 5693 5691 5689 5687 5685 5683 5681 5678 5676 5674 5672 5670 5667
5699 5698 5698 5698 5698 5697 5697 5697 5695 5693 5692 5691 5688 5687 5688 5689 5690 5691 5691 5691 5691 5691 5691 5691 5691 5691 5691 5691 5690 5689 5687 5686 5684 5682 5679 5677 5674 5671 5669 5666 5664 5661 5659
5690 5690 5690 5690 5690 5690 5690 5690 5689 5687 5685 5685 5682 5679 5677 5678 5681 5683 5683 5684 5683 5683 5684 5684 5685 5684 5684 5684 5684 5683 5681 5679 5678 5675 5672 5669 5667 5664 5661 5658 5655 5652 5649
5681 5681 5682 5682 5682 5683 5682 5683 5683 5681 5679 5679 5679 5676 5673 5672 5672 5672 5673 5674 5674 5675 5675 5676 5676 5676 5677 5677 5676 5675 5673 5672 5670 5667 5664 5661 5658 5655 5652 5649 5646 5643 5639
5673 5673 5674 5674 5675 5675 5675 5676 5676 5676 5674 5672 5673 5673 5673 5672 5667 5664 5663 5664 5664 5665 5665 5666 5666 5667 5667 5667 5666 5666 5664 5662 5660 5657 5654 5651 5648 5645 5642 5639 5636 5633 5629
5664 5664 5665 5666 5666 5666 5667 5668 5669 5669 5669 5668 5666 5666 5667 5666 5665 5661 5656 5654 5653 5653 5654 5655 5656 5656 5656 5656 5656 5655 5654 5652 5649 5646 5643 5640 5637 5634 5631 5628 5625 5621 5618
5654 5655 5656 5656 5656 5657 5658 5660 5661 5661 5662 5662 5661 5661 5661 5660 5659 5656 5652 5648 5644 5642 5643 5644 5645 5644 5644 5644 5644 5643 5642 5640 5638 5635 5632 5628 5626 5623 5619 5616 5613 5609 5606
5644 5644 5646 5647 5648 5649 5650 5652 5653 5653 5654 5654 5654 5654 5655 5655 5655 5652 5649 5642 5636 5632 5631 5631 5632 5632 5631 5631 5631 5631 5629 5628 5625 5622 5619 5617 5614 5610 5607 5604 5600 5597 5594
5634 5635 5636 5637 5639 5640 5641 5644 5645 5645 5646 5646 5646 5647 5648 5648 5647 5646 5643 5638 5631 5624 5622 5620 5620 5620 5619 5619 5618 5618 5617 5615 5612 5610 5608 5605 5602 5599 5595 5592 5588 5585 5582
5625 5626 5627 5629 5630 5631 5633 5634 5635 5636 5637 5637 5638 5639 5639 5638 5638 5637 5636 5635 5631 5622 5615 5611 5610 5608 5608 5608 5606 5605 5604 5603 5600 5598 5596 5593 5590 5587 5584 5580 5577 5574 5571
5616 5617 5618 5619 5621 5622 5624 5625 5626 5627 5628 5628 5629 5629 5629 5629 5628 5627 5627 5626 5624 5620 5610 5604 5601 5600 5598 5597 5596 5594 5592 5591 5589 5587 5585 5582 5579 5577 5573 5570 5566 5563 5560
5606 5607 5608 5609 5611 5612 5613 5615 5616 5617 5618 5618 5619 5619 5618 5618 5618 5617 5617 5616 5614 5612 5605 5595 5591 5589 5588 5587 5585 5583 5582 5580 5578 5576 5574 5572 5569 5566 5563 5559 5556 5552 5549
5596 5597 5598 5599 5600 5602 5603 5604 5605 5606 5607 5607 5608 5609 5608 5609 5608 5607 5606 5605 5604 5602 5598 5590 5583 5580 5578 5577 5575 5574 5572 5571 5569 5567 5565 5562 5559 5557 5554 5550 5547 5543 5539
5586 5587 5587 5588 5589 5590 5592 5593 5594 5595 5595 5596 5597 5598 5597 5598 5597 5596 5596 5595 5593 5591 5587 5582 5575 5572 5569 5568 5566 5565 5564 5563 5561 5559 5557 5554 5551 5548 5545 5541 5538 5534 5531
5576 5576 5577 5577 5578 5580 5581 5582 5583 5584 5584 5585 5586 5587 5587 5587 5587 5586 5586 5584 5583 5580 5576 5572 5567 5564 5561 5560 5558 5556 5554 5553 5553 5552 5549 5546 5543 5540 5537 5534 5530 5527 5524
5566 5566 5567 5567 5568 5569 5570 5571 5572 5573 5573 5574 5575 5576 5576 5577 5577 5577 5577 5574 5573 5570 5566 5562 5558 5555 5553 5551 5549 5547 5545 5544 5543 5542 5540 5538 5535 5532 5530 5528 5525 5522 5519
5556 5557 5556 5557 5558 5559 5560 5562 5562 5562 5562 5563 5563 5565 5566 5566 5567 5567 5567 5566 5565 5562 5557 5554 5550 5547 5545 5544 5542 5541 5538 5536 5534 5534 5532 5530 5529 5526 5526 5524 5522 5519 5516
5547 5547 5547 5548 5548 5549 5551 5552 5553 5552 5552 5553 5553 5554 5556 5556 5556 5556 5556 5556 5555 5554 5553 5549 5544 5541 5539 5538 5536 5534 5531 5529 5528 5527 5525 5523 5522 5521 5522 5520 5518 5516 5513
5538 5538 5538 5539 5540 5541 5543 5544 5545 5544 5543 5543 5544 5545 5545 5546 5547 5548 5547 5545 5544 5543 5543 5542 5539 5537 5536 5534 5532 5530 5527 5525 5523 5522 5521 5517 5516 5516 5517 5516 5515 5513 5510
5530 5531 5531 5532 5532 5533 5535 5537 5537 5536 5535 5535 5536 5537 5538 5538 5539 5540 5539 5536 5535 5534 5534 5534 5533 5532 5531 5530 5529 5526 5522 5518 5515 5515 5515 5513 5511 5510 5511 5512 5512 5510 5508
5524 5525 5524 5524 5525 5526 5528 5530 5531 5530 5529 5528 5529 5530 5531 5532 5533 5533 5532 5530 5527 5526 5527 5527 5527 5527 5526 5526 5524 5522 5519 5514 5511 5510 5511 5509 5507 5505 5504 5507 5508 5507 5506